Home > Weather > Uluru > Past weeks

Flag for Australia Weather for the Past 2 Weeks in Uluru, Northern Territory, Australia

Now
70 °F

Clear.


Feels Like: 70 °F
Forecast: 61 / 83 °F
Wind: No wind

Location: Ayers Rock

Current Time: May 2, 2016 at 10:33:17 PM

Latest Report: May 2, 2016 at 9:30 PM


Visibility: N/A

Pressure: 30.07 "Hg (27.22 "Hg at 857m altitude)

Humidity: 35%

Dew Point: 41 °F

Location of UluruLocation

Historic Weather in Uluru — Graph

°F

Uluru Temperature Yesterday

Maximum temperature yesterday: 72 °F (at 12:30 AM)
Minimum temperature yesterday: 63 °F (at 4:30 AM)
Average temperature yesterday: 68 °F

High & Low Weather Summary for the Past Weeks

 TemperatureHumidityPressure
High93 °F (Apr 19, 1:30 PM)77% (Apr 22, 6:30 AM)30.30 "Hg (Apr 22, 6:30 AM)
Low50 °F (Apr 25, 4:30 AM)11% (Apr 25, 4:30 PM)29.86 "Hg (Apr 28, 4:30 PM)
Average73 °F35%30.07 "Hg
* Reported Apr 17 9:30 PM — May 2 9:30 PM, Uluru, Weather by CustomWeather, © 2016

Note: Actual official high and low records may vary slightly from our data, if they occured in-between our weather recording intervals... More about our weather records

Advertising

Uluru Weather History for the Previous 24 Hours

Scroll right to see more
 ConditionsComfort  
Time TempWeatherWind HumidityBarometerVisibility
9:30 PM
Mon, May 2
70 °FClear.No wind35%30.07 "HgN/A
8:30 PM72 °FClear.1 mph31%30.07 "HgN/A
7:30 PM75 °FClear.No wind27%30.04 "HgN/A
6:30 PM77 °FClear.2 mph24%30.04 "HgN/A
5:30 PM79 °FSunny.3 mph24%30.01 "HgN/A
4:30 PM81 °FSunny.6 mph23%30.01 "HgN/A
3:30 PM81 °FScattered clouds.6 mph20%30.04 "HgN/A
2:30 PM81 °FMostly cloudy.3 mph15%30.04 "HgN/A
1:30 PM79 °FScattered clouds.6 mph21%30.04 "HgN/A
12:30 PM77 °FPartly sunny.5 mph30%30.09 "HgN/A
11:30 AM75 °FSunny.7 mph34%30.09 "HgN/A
10:30 AM72 °FScattered clouds.8 mph38%30.12 "HgN/A
9:30 AM68 °FSunny.9 mph43%30.12 "HgN/A
8:30 AM63 °FSunny.7 mph52%30.09 "HgN/A
7:30 AM59 °FSunny.5 mph59%30.09 "HgN/A
6:30 AM61 °FClear.7 mph55%30.07 "HgN/A
5:30 AM59 °FClear.6 mph59%30.07 "HgN/A
4:30 AM63 °FClear.8 mph52%30.07 "HgN/A
3:30 AM63 °FClear.8 mph56%30.07 "HgN/A
2:30 AM63 °FClear.8 mph56%30.07 "HgN/A
1:30 AM63 °FClear.7 mph56%30.07 "HgN/A
12:30 AM63 °FClear.6 mph56%30.07 "HgN/A
11:30 PM
Sun, May 1
64 °FClear.7 mph52%30.07 "HgN/A
10:30 PM63 °FClear.6 mph59%30.09 "HgN/A
Weather by CustomWeather, © 2016

See weather overviewHow to use our weather pages